| time (UTC) | temp C | wind direction | speed KPH | gust KPH | rain 1hr cm | rain 24hr cm | rain mn cm | humidity % | barometer mb |
| 20260506194508 | 16 | 23 | 8.0 | 24.1 | 0.00 | 0.00 | 0.00 | 43 | 1018.5 |
| 20260506194008 | 16 | 84 | 6.4 | 22.5 | 0.00 | 0.00 | 0.00 | 43 | 1018.4 |
| 20260506193507 | 16 | 67 | 8.0 | 16.1 | 0.00 | 0.00 | 0.00 | 44 | 1018.5 |
| 20260506193007 | 16 | 9 | 6.4 | 16.1 | 0.00 | 0.00 | 0.00 | 44 | 1018.6 |
| 20260506192737 | 16 | 42 | 6.4 | 16.1 | 0.00 | 0.00 | 0.00 | 43 | 1018.6 |
| 20260506192006 | 16 | 63 | 8.0 | 17.7 | 0.00 | 0.00 | 0.00 | 43 | 1018.7 |
| 20260506191738 | 16 | 78 | 9.7 | 32.2 | 0.00 | 0.00 | 0.00 | 44 | 1018.7 |
| 20260506191612 | 16 | 345 | 8.0 | 32.2 | 0.00 | 0.00 | 0.00 | 43 | 1018.7 |
| 20260506190506 | 16 | 47 | 8.0 | 16.1 | 0.00 | 0.00 | 0.00 | 45 | 1018.8 |
| 20260506190007 | 16 | 108 | 6.4 | 16.1 | 0.00 | 0.00 | 0.00 | 44 | 1018.8 |
| 20260506185507 | 16 | 79 | 6.4 | 17.7 | 0.00 | 0.00 | 0.00 | 45 | 1018.8 |
| 20260506185007 | 16 | 51 | 6.4 | 17.7 | 0.00 | 0.00 | 0.00 | 44 | 1018.7 |
| 20260506184506 | 16 | 57 | 3.2 | 14.5 | 0.00 | 0.00 | 0.00 | 44 | 1018.8 |
| 20260506184006 | 16 | 114 | 4.8 | 16.1 | 0.00 | 0.00 | 0.00 | 46 | 1018.8 |
| 20260506183501 | 16 | 80 | 8.0 | 20.9 | 0.00 | 0.00 | 0.00 | 46 | 1018.7 |
| 20260506183229 | 16 | 0 | 8.0 | 20.9 | 0.00 | 0.00 | 0.00 | 47 | 1018.7 |
| 20260506182458 | 16 | 20 | 4.8 | 19.3 | 0.00 | 0.00 | 0.00 | 47 | 1018.7 |
| 20260506181958 | 16 | 46 | 4.8 | 14.5 | 0.00 | 0.00 | 0.00 | 47 | 1018.8 |
| 20260506181458 | 15 | 74 | 6.4 | 16.1 | 0.00 | 0.00 | 0.00 | 48 | 1018.8 |
| 20260506180958 | 15 | 348 | 6.4 | 16.1 | 0.00 | 0.00 | 0.00 | 48 | 1018.9 |
| 20260506180456 | 16 | 63 | 4.8 | 14.5 | 0.00 | 0.00 | 0.00 | 47 | 1018.9 |
| 20260506175956 | 16 | 29 | 3.2 | 14.5 | 0.00 | 0.00 | 0.00 | 47 | 1018.9 |
| 20260506175456 | 15 | 65 | 3.2 | 12.9 | 0.00 | 0.00 | 0.00 | 48 | 1018.9 |
| 20260506174954 | 15 | 58 | 4.8 | 16.1 | 0.00 | 0.00 | 0.00 | 47 | 1019.0 |
| 20260506174452 | 15 | 13 | 3.2 | 16.1 | 0.00 | 0.00 | 0.00 | 47 | 1019.0 |
| 20260506173922 | 15 | 28 | 3.2 | 12.9 | 0.00 | 0.00 | 0.00 | 46 | 1018.9 |
| 20260506173422 | 15 | 34 | 4.8 | 12.9 | 0.00 | 0.00 | 0.00 | 47 | 1019.0 |
| 20260506172922 | 15 | 41 | 1.6 | 14.5 | 0.00 | 0.00 | 0.00 | 46 | 1019.0 |
| 20260506172412 | 15 | 24 | 1.6 | 14.5 | 0.00 | 0.00 | 0.00 | 47 | 1019.0 |
| 20260506171910 | 15 | 86 | 3.2 | 17.7 | 0.00 | 0.00 | 0.00 | 47 | 1019.0 |
| 20260506171409 | 15 | 13 | 4.8 | 17.7 | 0.00 | 0.00 | 0.00 | 46 | 1018.9 |
| 20260506170910 | 15 | 50 | 1.6 | 16.1 | 0.00 | 0.00 | 0.00 | 46 | 1019.0 |
| 20260506170410 | 15 | 43 | 1.6 | 12.9 | 0.00 | 0.00 | 0.00 | 46 | 1018.9 |
| 20260506165911 | 15 | 84 | 1.6 | 12.9 | 0.00 | 0.00 | 0.00 | 45 | 1018.8 |
| 20260506165640 | 15 | 20 | 0.0 | 1.6 | 0.00 | 0.00 | 0.00 | 44 | 1018.7 |
| 20260506164903 | 15 | 26 | 1.6 | 9.7 | 0.00 | 0.00 | 0.00 | 45 | 1018.7 |
| 20260506164400 | 15 | 338 | 1.6 | 12.9 | 0.00 | 0.00 | 0.00 | 45 | 1018.7 |
| 20260506163857 | 15 | 0 | 0.0 | 11.3 | 0.00 | 0.00 | 0.00 | 45 | 1018.7 |
| 20260506163629 | 14 | 55 | 0.0 | 0.0 | 0.00 | 0.00 | 0.00 | 46 | 1018.7 |
| 20260506162846 | 14 | 94 | 0.0 | 0.0 | 0.00 | 0.00 | 0.00 | 46 | 1018.7 |
| 20260506162346 | 14 | 40 | 0.0 | 0.0 | 0.00 | 0.00 | 0.00 | 47 | 1018.7 |
| 20260506161845 | 13 | 67 | 0.0 | 0.0 | 0.00 | 0.00 | 0.00 | 47 | 1018.7 |
| 20260506161318 | 13 | 68 | 0.0 | 0.0 | 0.00 | 0.00 | 0.00 | 47 | 1018.7 |
| 20260506160809 | 12 | 44 | 0.0 | 0.0 | 0.00 | 0.00 | 0.00 | 50 | 1018.7 |
| 20260506160306 | 12 | 44 | 0.0 | 0.0 | 0.00 | 0.00 | 0.00 | 53 | 1018.7 |
| 20260506155758 | 11 | 34 | 0.0 | 0.0 | 0.00 | 0.00 | 0.00 | 54 | 1018.7 |
| 20260506155256 | 10 | 149 | 0.0 | 0.0 | 0.00 | 0.00 | 0.00 | 58 | 1018.7 |
| 20260506154753 | 9 | 161 | 0.0 | 0.0 | 0.00 | 0.00 | 0.00 | 63 | 1018.7 |
| 20260506154254 | 8 | 162 | 0.0 | 0.0 | 0.00 | 0.00 | 0.00 | 75 | 1018.7 |
| 20260506154023 | 8 | 162 | 0.0 | 0.0 | 0.00 | 0.00 | 0.00 | 78 | 1018.7 |
| 20260506153252 | 7 | 161 | 0.0 | 0.0 | 0.00 | 0.00 | 0.00 | 81 | 1018.7 |
| 20260506152745 | 6 | 162 | 0.0 | 0.0 | 0.00 | 0.00 | 0.00 | 85 | 1018.7 |
| 20260506152245 | 6 | 161 | 0.0 | 0.0 | 0.00 | 0.00 | 0.00 | 88 | 1018.8 |
| 20260506152016 | 5 | 162 | 0.0 | 0.0 | 0.00 | 0.00 | 0.00 | 90 | 1018.8 |
| 20260506151244 | 5 | 162 | 0.0 | 0.0 | 0.00 | 0.00 | 0.00 | 93 | 1018.9 |
| 20260506150741 | 4 | 161 | 0.0 | 0.0 | 0.00 | 0.00 | 0.00 | 95 | 1018.8 |
| 20260506150237 | 3 | 161 | 0.0 | 0.0 | 0.00 | 0.00 | 0.00 | 96 | 1018.8 |
| 20260506145738 | 2 | 165 | 0.0 | 0.0 | 0.00 | 0.00 | 0.00 | 96 | 1018.8 |
| 20260506145452 | 2 | 165 | 0.0 | 0.0 | 0.00 | 0.00 | 0.00 | 96 | 1018.8 |
| 20260506144941 | 1 | 165 | 0.0 | 0.0 | 0.00 | 0.00 | 0.00 | 96 | 1018.7 |
| 20260506144208 | 1 | 165 | 0.0 | 0.0 | 0.00 | 0.00 | 0.00 | 96 | 1018.7 |
| 20260506143708 | 0 | 165 | 0.0 | 0.0 | 0.00 | 0.00 | 0.00 | 96 | 1018.7 |
| 20260506143159 | 0 | 165 | 0.0 | 0.0 | 0.00 | 0.00 | 0.00 | 95 | 1018.6 |
| 20260506142649 | 0 | 165 | 0.0 | 0.0 | 0.00 | 0.00 | 0.00 | 95 | 1018.6 |
| 20260506142123 | 0 | 165 | 0.0 | 0.0 | 0.00 | 0.00 | 0.00 | 95 | 1018.5 |
| 20260506141842 | 0 | 165 | 0.0 | 0.0 | 0.00 | 0.00 | 0.00 | 95 | 1018.5 |
| 20260506141110 | -1 | 165 | 0.0 | 0.0 | 0.00 | 0.00 | 0.00 | 95 | 1018.5 |
| 20260506140841 | -1 | 165 | 0.0 | 0.0 | 0.00 | 0.00 | 0.00 | 95 | 1018.4 |
| 20260506140109 | -1 | 165 | 0.0 | 0.0 | 0.00 | 0.00 | 0.00 | 94 | 1018.4 |
| 20260506135840 | -1 | 165 | 0.0 | 0.0 | 0.00 | 0.00 | 0.00 | 94 | 1018.3 |
| 20260506135057 | -1 | 165 | 0.0 | 0.0 | 0.00 | 0.00 | 0.00 | 94 | 1018.0 |
| 20260506134525 | -2 | 165 | 0.0 | 0.0 | 0.00 | 0.00 | 0.00 | 94 | 1018.0 |
| 20260506134007 | -2 | 165 | 0.0 | 0.0 | 0.00 | 0.00 | 0.00 | 94 | 1017.8 |
| 20260506133455 | -2 | 165 | 0.0 | 0.0 | 0.00 | 0.00 | 0.00 | 94 | 1017.8 |
| 20260506132951 | -2 | 165 | 0.0 | 0.0 | 0.00 | 0.00 | 0.00 | 94 | 1017.8 |
| 20260506132444 | -2 | 165 | 0.0 | 0.0 | 0.00 | 0.00 | 0.00 | 94 | 1017.8 |
| 20260506131941 | -2 | 165 | 0.0 | 0.0 | 0.00 | 0.00 | 0.00 | 94 | 1017.7 |
| 20260506131419 | -2 | 165 | 0.0 | 0.0 | 0.00 | 0.00 | 0.00 | 94 | 1017.7 |
| 20260506130903 | -2 | 165 | 0.0 | 0.0 | 0.00 | 0.00 | 0.00 | 94 | 1017.6 |
| 20260506130358 | -2 | 165 | 0.0 | 0.0 | 0.00 | 0.00 | 0.00 | 94 | 1017.6 |
| 20260506125845 | -2 | 165 | 0.0 | 0.0 | 0.00 | 0.00 | 0.00 | 94 | 1017.5 |
| 20260506125344 | -2 | 165 | 0.0 | 0.0 | 0.00 | 0.00 | 0.00 | 94 | 1017.5 |
| 20260506124823 | -2 | 165 | 0.0 | 0.0 | 0.00 | 0.00 | 0.00 | 94 | 1017.5 |
| 20260506124323 | -2 | 155 | 0.0 | 0.0 | 0.00 | 0.00 | 0.00 | 94 | 1017.5 |
| 20260506123812 | -2 | 233 | 0.0 | 0.0 | 0.00 | 0.00 | 0.00 | 94 | 1017.4 |
| 20260506123309 | -1 | 217 | 0.0 | 0.0 | 0.00 | 0.00 | 0.00 | 94 | 1017.3 |
| 20260506122809 | -1 | 217 | 0.0 | 0.0 | 0.00 | 0.00 | 0.00 | 94 | 1017.3 |
| 20260506122306 | -1 | 218 | 0.0 | 0.0 | 0.00 | 0.00 | 0.00 | 94 | 1017.2 |
| 20260506121753 | -1 | 218 | 0.0 | 0.0 | 0.00 | 0.00 | 0.00 | 94 | 1017.0 |
| 20260506121518 | -1 | 217 | 0.0 | 0.0 | 0.00 | 0.00 | 0.00 | 94 | 1017.0 |
| 20260506120729 | -1 | 218 | 0.0 | 0.0 | 0.00 | 0.00 | 0.00 | 94 | 1017.0 |
| 20260506120227 | -2 | 218 | 0.0 | 0.0 | 0.00 | 0.00 | 0.00 | 94 | 1016.9 |
| 20260506120208 | -2 | 218 | 0.0 | 0.0 | 0.00 | 0.00 | 0.00 | 94 | 1016.9 |
| 20260506115205 | -2 | 218 | 0.0 | 0.0 | 0.00 | 0.00 | 0.00 | 94 | 1016.8 |
| 20260506114659 | -2 | 218 | 0.0 | 0.0 | 0.00 | 0.00 | 0.00 | 93 | 1016.8 |
| 20260506114153 | -2 | 218 | 0.0 | 0.0 | 0.00 | 0.00 | 0.00 | 93 | 1016.8 |
| 20260506113653 | -2 | 264 | 0.0 | 0.0 | 0.00 | 0.00 | 0.00 | 93 | 1016.8 |
| 20260506113135 | -2 | 264 | 0.0 | 0.0 | 0.00 | 0.00 | 0.00 | 93 | 1016.8 |
| 20260506112615 | -2 | 264 | 0.0 | 0.0 | 0.00 | 0.00 | 0.00 | 93 | 1016.7 |
| 20260506112111 | -2 | 263 | 0.0 | 0.0 | 0.00 | 0.00 | 0.00 | 93 | 1016.6 |
| 20260506111609 | -2 | 264 | 0.0 | 0.0 | 0.00 | 0.00 | 0.00 | 93 | 1016.6 |
| 20260506111337 | -2 | 264 | 0.0 | 0.0 | 0.00 | 0.00 | 0.00 | 93 | 1016.5 |
| 20260506110606 | -2 | 264 | 0.0 | 0.0 | 0.00 | 0.00 | 0.00 | 93 | 1016.4 |
| 20260506105819 | -2 | 264 | 0.0 | 0.0 | 0.00 | 0.00 | 0.00 | 93 | 1016.4 |
| 20260506105028 | -2 | 264 | 0.0 | 0.0 | 0.00 | 0.00 | 0.00 | 93 | 1016.3 |
| 20260506105024 | -2 | 264 | 0.0 | 0.0 | 0.00 | 0.00 | 0.00 | 93 | 1016.3 |
| 20260506104019 | -2 | 264 | 0.0 | 0.0 | 0.00 | 0.00 | 0.00 | 93 | 1016.3 |
| 20260506103510 | -2 | 264 | 0.0 | 0.0 | 0.00 | 0.00 | 0.00 | 93 | 1016.4 |
| 20260506103240 | -2 | 264 | 0.0 | 0.0 | 0.00 | 0.00 | 0.00 | 93 | 1016.2 |
| 20260506102503 | -2 | 264 | 0.0 | 0.0 | 0.00 | 0.00 | 0.00 | 93 | 1016.1 |
| 20260506101950 | -2 | 264 | 0.0 | 0.0 | 0.00 | 0.00 | 0.00 | 93 | 1016.2 |
| 20260506101440 | -2 | 264 | 0.0 | 0.0 | 0.00 | 0.00 | 0.00 | 93 | 1016.2 |
| 20260506100934 | -2 | 264 | 0.0 | 0.0 | 0.00 | 0.00 | 0.00 | 93 | 1016.1 |
| 20260506100423 | -2 | 264 | 0.0 | 0.0 | 0.00 | 0.00 | 0.00 | 93 | 1016.1 |
| 20260506095913 | -2 | 264 | 0.0 | 0.0 | 0.00 | 0.00 | 0.00 | 92 | 1016.0 |
| 20260506095322 | -2 | 264 | 0.0 | 0.0 | 0.00 | 0.00 | 0.00 | 92 | 1015.8 |
| 20260506094817 | -2 | 264 | 0.0 | 0.0 | 0.00 | 0.00 | 0.00 | 92 | 1015.9 |
| 20260506094301 | -2 | 264 | 0.0 | 0.0 | 0.00 | 0.00 | 0.00 | 92 | 1015.8 |
| 20260506093757 | -2 | 264 | 0.0 | 0.0 | 0.00 | 0.00 | 0.00 | 92 | 1015.8 |
| 20260506093236 | -2 | 264 | 0.0 | 0.0 | 0.00 | 0.00 | 0.00 | 92 | 1015.8 |
| 20260506092726 | -2 | 264 | 0.0 | 0.0 | 0.00 | 0.00 | 0.00 | 92 | 1015.7 |
| 20260506092215 | -2 | 264 | 0.0 | 0.0 | 0.00 | 0.00 | 0.00 | 92 | 1015.7 |
| 20260506091713 | -2 | 264 | 0.0 | 0.0 | 0.00 | 0.00 | 0.00 | 91 | 1015.7 |
| 20260506091207 | -2 | 264 | 0.0 | 0.0 | 0.00 | 0.00 | 0.00 | 91 | 1015.7 |
| 20260506090701 | -2 | 264 | 0.0 | 0.0 | 0.00 | 0.00 | 0.00 | 91 | 1015.7 |
| 20260506090202 | -2 | 264 | 0.0 | 0.0 | 0.00 | 0.00 | 0.00 | 91 | 1015.7 |
| 20260506085700 | -2 | 264 | 0.0 | 0.0 | 0.00 | 0.00 | 0.00 | 91 | 1015.7 |
| 20260506085431 | -2 | 264 | 0.0 | 0.0 | 0.00 | 0.00 | 0.00 | 91 | 1015.7 |
| 20260506084646 | -2 | 264 | 0.0 | 0.0 | 0.00 | 0.00 | 0.00 | 91 | 1015.7 |
| 20260506084141 | -2 | 264 | 0.0 | 0.0 | 0.00 | 0.00 | 0.00 | 91 | 1015.7 |
| 20260506083636 | -2 | 264 | 0.0 | 0.0 | 0.00 | 0.00 | 0.00 | 91 | 1015.7 |
| 20260506083345 | -2 | 264 | 0.0 | 0.0 | 0.00 | 0.00 | 0.00 | 91 | 1015.7 |
| 20260506082609 | -2 | 264 | 0.0 | 0.0 | 0.00 | 0.00 | 0.00 | 91 | 1015.7 |
| 20260506082058 | -2 | 264 | 0.0 | 0.0 | 0.00 | 0.00 | 0.00 | 91 | 1015.7 |
| 20260506081554 | -2 | 264 | 0.0 | 0.0 | 0.00 | 0.00 | 0.00 | 90 | 1015.7 |
| 20260506081034 | -2 | 264 | 0.0 | 0.0 | 0.00 | 0.00 | 0.00 | 91 | 1015.7 |
| 20260506080533 | -2 | 264 | 0.0 | 0.0 | 0.00 | 0.00 | 0.00 | 90 | 1015.7 |
| 20260506073349 | -2 | 264 | 0.0 | 0.0 | 0.00 | 0.00 | 0.00 | 89 | 1015.5 |
| 20260506072844 | -2 | 264 | 0.0 | 0.0 | 0.00 | 0.00 | 0.00 | 89 | 1015.6 |
| 20260506072344 | -2 | 264 | 0.0 | 0.0 | 0.00 | 0.00 | 0.00 | 89 | 1015.5 |
| 20260506071841 | -2 | 264 | 0.0 | 0.0 | 0.00 | 0.00 | 0.00 | 89 | 1015.5 |
| 20260506071308 | -2 | 264 | 0.0 | 0.0 | 0.00 | 0.00 | 0.00 | 89 | 1015.5 |
| 20260506070807 | -2 | 264 | 0.0 | 0.0 | 0.00 | 0.00 | 0.00 | 89 | 1015.3 |
| 20260506070238 | -2 | 264 | 0.0 | 0.0 | 0.00 | 0.00 | 0.00 | 89 | 1015.3 |
| 20260506062108 | -1 | 264 | 0.0 | 0.0 | 0.00 | 0.00 | 0.00 | 87 | 1014.9 |
| 20260506061835 | -1 | 264 | 0.0 | 0.0 | 0.00 | 0.00 | 0.00 | 87 | 1014.7 |
| 20260506061334 | -1 | 264 | 0.0 | 0.0 | 0.00 | 0.00 | 0.00 | 87 | 1014.6 |
| 20260506060604 | -1 | 264 | 0.0 | 0.0 | 0.00 | 0.00 | 0.00 | 87 | 1014.6 |
| 20260506060332 | -1 | 264 | 0.0 | 0.0 | 0.00 | 0.00 | 0.00 | 86 | 1014.4 |
| 20260506051004 | 0 | 264 | 0.0 | 0.0 | 0.00 | 0.00 | 0.00 | 84 | 1013.8 |
| 20260506050503 | 0 | 264 | 0.0 | 0.0 | 0.00 | 0.00 | 0.00 | 84 | 1013.9 |
| 20260506050216 | 0 | 264 | 0.0 | 0.0 | 0.00 | 0.00 | 0.00 | 84 | 1013.8 |
| 20260506044908 | 0 | 264 | 0.0 | 0.0 | 0.00 | 0.00 | 0.00 | 83 | 1013.7 |
| 20260506044409 | 0 | 264 | 0.0 | 0.0 | 0.00 | 0.00 | 0.00 | 83 | 1013.7 |
| 20260506043902 | 0 | 264 | 0.0 | 0.0 | 0.00 | 0.00 | 0.00 | 82 | 1013.7 |
| 20260506043400 | 0 | 264 | 0.0 | 0.0 | 0.00 | 0.00 | 0.00 | 82 | 1013.6 |
| 20260506042844 | 1 | 264 | 0.0 | 0.0 | 0.00 | 0.00 | 0.00 | 82 | 1013.6 |
| 20260506042613 | 1 | 264 | 0.0 | 0.0 | 0.00 | 0.00 | 0.00 | 81 | 1013.6 |
| 20260506041808 | 1 | 264 | 0.0 | 0.0 | 0.00 | 0.00 | 0.00 | 81 | 1013.5 |
| 20260506041308 | 1 | 264 | 0.0 | 0.0 | 0.00 | 0.00 | 0.00 | 80 | 1013.5 |
| 20260506040803 | 1 | 264 | 0.0 | 0.0 | 0.00 | 0.00 | 0.00 | 80 | 1013.2 |
| 20260506040256 | 1 | 264 | 0.0 | 0.0 | 0.00 | 0.00 | 0.00 | 80 | 1013.1 |
| 20260506035735 | 2 | 264 | 0.0 | 0.0 | 0.00 | 0.00 | 0.00 | 79 | 1013.1 |
| 20260506035458 | 2 | 264 | 0.0 | 0.0 | 0.00 | 0.00 | 0.00 | 79 | 1013.0 |
| 20260506034933 | 2 | 264 | 0.0 | 0.0 | 0.00 | 0.00 | 0.00 | 78 | 1012.9 |
| 20260506034202 | 2 | 264 | 0.0 | 0.0 | 0.00 | 0.00 | 0.00 | 78 | 1012.9 |
| 20260506033649 | 2 | 264 | 0.0 | 0.0 | 0.00 | 0.00 | 0.00 | 78 | 1012.8 |
| 20260506033150 | 3 | 264 | 0.0 | 0.0 | 0.00 | 0.00 | 0.00 | 78 | 1012.6 |
| 20260506032646 | 3 | 264 | 0.0 | 0.0 | 0.00 | 0.00 | 0.00 | 77 | 1012.6 |
| 20260506032144 | 3 | 264 | 0.0 | 0.0 | 0.00 | 0.00 | 0.00 | 77 | 1012.5 |
| 20260506031638 | 3 | 264 | 0.0 | 0.0 | 0.00 | 0.00 | 0.00 | 77 | 1012.4 |
| 20260506031136 | 3 | 264 | 0.0 | 0.0 | 0.00 | 0.00 | 0.00 | 77 | 1012.2 |
| 20260506030626 | 4 | 264 | 0.0 | 0.0 | 0.00 | 0.00 | 0.00 | 76 | 1012.1 |
| 20260506030111 | 4 | 264 | 0.0 | 0.0 | 0.00 | 0.00 | 0.00 | 76 | 1012.1 |
| 20260506025843 | 5 | 264 | 0.0 | 0.0 | 0.00 | 0.00 | 0.00 | 75 | 1011.9 |
| 20260506025047 | 5 | 263 | 0.0 | 0.0 | 0.00 | 0.00 | 0.00 | 74 | 1011.8 |
| 20260506024523 | 5 | 264 | 0.0 | 0.0 | 0.00 | 0.00 | 0.00 | 74 | 1011.8 |
| 20260506024012 | 5 | 264 | 0.0 | 0.0 | 0.00 | 0.00 | 0.00 | 73 | 1011.8 |
| 20260506023511 | 5 | 264 | 0.0 | 0.0 | 0.00 | 0.00 | 0.00 | 73 | 1011.7 |
| 20260506023009 | 6 | 264 | 0.0 | 0.0 | 0.00 | 0.00 | 0.00 | 72 | 1011.6 |
| 20260506022740 | 6 | 264 | 0.0 | 0.0 | 0.00 | 0.00 | 0.00 | 71 | 1011.6 |
| 20260506022007 | 6 | 264 | 0.0 | 0.0 | 0.00 | 0.00 | 0.00 | 70 | 1011.6 |
| 20260506021500 | 6 | 263 | 0.0 | 0.0 | 0.00 | 0.00 | 0.00 | 69 | 1011.5 |
| 20260506020921 | 6 | 269 | 0.0 | 0.0 | 0.00 | 0.00 | 0.00 | 69 | 1011.3 |
| 20260506020418 | 7 | 270 | 0.0 | 0.0 | 0.00 | 0.00 | 0.00 | 69 | 1011.4 |
| 20260506015915 | 7 | 269 | 0.0 | 0.0 | 0.00 | 0.00 | 0.00 | 68 | 1011.3 |
| 20260506015413 | 7 | 270 | 0.0 | 0.0 | 0.00 | 0.00 | 0.00 | 68 | 1011.2 |
| 20260506014911 | 7 | 265 | 0.0 | 3.2 | 0.00 | 0.00 | 0.00 | 68 | 1011.1 |
| 20260506014408 | 7 | 264 | 1.6 | 12.9 | 0.00 | 0.00 | 0.00 | 68 | 1011.1 |
| 20260506013908 | 7 | 288 | 1.6 | 12.9 | 0.00 | 0.00 | 0.00 | 67 | 1011.0 |
| 20260506013405 | 7 | 342 | 1.6 | 12.9 | 0.00 | 0.00 | 0.00 | 67 | 1011.0 |
| 20260506013136 | 7 | 327 | 1.6 | 12.9 | 0.00 | 0.00 | 0.00 | 68 | 1010.9 |
| 20260506012400 | 7 | 323 | 0.0 | 9.7 | 0.00 | 0.00 | 0.00 | 69 | 1010.8 |
| 20260506011847 | 7 | 277 | 1.6 | 14.5 | 0.00 | 0.00 | 0.00 | 70 | 1010.8 |
| 20260506011346 | 7 | 268 | 3.2 | 16.1 | 0.00 | 0.00 | 0.00 | 70 | 1010.7 |
| 20260506011115 | 8 | 290 | 1.6 | 16.1 | 0.00 | 0.00 | 0.00 | 68 | 1010.8 |
| 20260506010334 | 8 | 286 | 1.6 | 11.3 | 0.00 | 0.00 | 0.00 | 66 | 1010.8 |
| 20260506005833 | 8 | 271 | 1.6 | 11.3 | 0.00 | 0.00 | 0.00 | 65 | 1010.7 |
| 20260506005332 | 8 | 269 | 0.0 | 6.4 | 0.00 | 0.00 | 0.00 | 65 | 1010.5 |
| 20260506005101 | 8 | 277 | 1.6 | 8.0 | 0.00 | 0.00 | 0.00 | 65 | 1010.4 |
| 20260506004936 | 8 | 242 | 1.6 | 9.7 | 0.00 | 0.00 | 0.00 | 66 | 1010.4 |
| 20260506003831 | 8 | 271 | 4.8 | 16.1 | 0.00 | 0.00 | 0.00 | 67 | 1010.4 |
| 20260506003331 | 8 | 308 | 6.4 | 17.7 | 0.00 | 0.00 | 0.00 | 66 | 1010.5 |
| 20260506002831 | 8 | 5 | 4.8 | 17.7 | 0.00 | 0.00 | 0.00 | 66 | 1010.6 |
| 20260506002330 | 8 | 339 | 6.4 | 17.7 | 0.00 | 0.00 | 0.00 | 66 | 1010.6 |
| 20260506001830 | 8 | 355 | 8.0 | 17.7 | 0.00 | 0.00 | 0.00 | 65 | 1010.6 |
| 20260506001328 | 8 | 325 | 6.4 | 17.7 | 0.00 | 0.00 | 0.00 | 64 | 1010.6 |
| 20260506000829 | 9 | 67 | 3.2 | 12.9 | 0.00 | 0.00 | 0.00 | 62 | 1010.4 |
| 20260506000552 | 9 | 43 | 1.6 | 11.3 | 0.00 | 0.00 | 0.00 | 63 | 1010.4 |
| 20260506000426 | 9 | 30 | 0.0 | 6.4 | 0.00 | 0.00 | 0.00 | 63 | 1010.4 |
| 20260505235318 | 8 | 345 | 1.6 | 12.9 | 0.00 | 0.00 | 0.00 | 63 | 1010.2 |
| 20260505234815 | 8 | 303 | 3.2 | 12.9 | 0.00 | 0.00 | 0.00 | 64 | 1010.2 |
| 20260505234314 | 8 | 355 | 1.6 | 14.5 | 0.00 | 0.00 | 0.00 | 66 | 1010.1 |
| 20260505233809 | 8 | 12 | 1.6 | 14.5 | 0.00 | 0.00 | 0.00 | 67 | 1010.2 |
| 20260505233531 | 8 | 302 | 0.0 | 1.6 | 0.00 | 0.00 | 0.00 | 68 | 1010.3 |
| 20260505232802 | 8 | 288 | 0.0 | 1.6 | 0.00 | 0.00 | 0.00 | 69 | 1010.3 |
| 20260505232257 | 7 | 0 | 1.6 | 11.3 | 0.00 | 0.00 | 0.00 | 70 | 1010.3 |
| 20260505231755 | 7 | 5 | 4.8 | 14.5 | 0.00 | 0.00 | 0.00 | 70 | 1010.4 |
| 20260505231252 | 7 | 290 | 6.4 | 14.5 | 0.00 | 0.00 | 0.00 | 69 | 1010.4 |
| 20260505230753 | 7 | 52 | 4.8 | 14.5 | 0.00 | 0.00 | 0.00 | 69 | 1010.5 |
| 20260505230246 | 7 | 348 | 3.2 | 12.9 | 0.00 | 0.00 | 0.00 | 69 | 1010.5 |
| 20260505230010 | 7 | 278 | 4.8 | 14.5 | 0.00 | 0.00 | 0.00 | 70 | 1010.5 |
| 20260505225844 | 7 | 11 | 4.8 | 16.1 | 0.00 | 0.00 | 0.00 | 70 | 1010.6 |
| 20260505224734 | 7 | 9 | 6.4 | 16.1 | 0.00 | 0.00 | 0.00 | 71 | 1010.6 |
| 20260505224229 | 7 | 333 | 9.7 | 17.7 | 0.00 | 0.00 | 0.00 | 70 | 1010.7 |
| 20260505223727 | 7 | 33 | 9.7 | 17.7 | 0.00 | 0.00 | 0.00 | 70 | 1010.8 |
| 20260505223227 | 7 | 10 | 6.4 | 16.1 | 0.00 | 0.00 | 0.00 | 71 | 1010.8 |
| 20260505222726 | 7 | 314 | 8.0 | 19.3 | 0.00 | 0.00 | 0.00 | 71 | 1010.8 |
| 20260505222227 | 7 | 355 | 9.7 | 19.3 | 0.00 | 0.00 | 0.00 | 70 | 1010.8 |
| 20260505221726 | 7 | 308 | 8.0 | 17.7 | 0.00 | 0.00 | 0.00 | 71 | 1010.9 |
| 20260505221226 | 7 | 322 | 8.0 | 17.7 | 0.00 | 0.00 | 0.00 | 71 | 1010.8 |
| 20260505220726 | 7 | 255 | 6.4 | 14.5 | 0.00 | 0.00 | 0.00 | 72 | 1010.8 |
| 20260505220225 | 7 | 253 | 8.0 | 20.9 | 0.00 | 0.00 | 0.00 | 72 | 1010.7 |
| 20260505215726 | 7 | 355 | 9.7 | 25.7 | 0.00 | 0.00 | 0.00 | 72 | 1010.8 |
| 20260505215452 | 7 | 271 | 11.3 | 25.7 | 0.00 | 0.00 | 0.00 | 72 | 1010.7 |
| 20260505214950 | 6 | 336 | 11.3 | 25.7 | 0.00 | 0.00 | 0.00 | 72 | 1010.7 |
| 20260505214220 | 7 | 289 | 9.7 | 24.1 | 0.00 | 0.00 | 0.00 | 72 | 1010.8 |
| 20260505213714 | 7 | 248 | 11.3 | 29.0 | 0.00 | 0.00 | 0.00 | 72 | 1010.9 |
| 20260505213208 | 7 | 296 | 11.3 | 29.0 | 0.00 | 0.00 | 0.00 | 71 | 1010.8 |
| 20260505212929 | 7 | 301 | 11.3 | 30.6 | 0.00 | 0.00 | 0.00 | 72 | 1010.9 |
| 20260505212158 | 7 | 261 | 14.5 | 32.2 | 0.00 | 0.00 | 0.00 | 71 | 1010.8 |
| 20260505211658 | 7 | 349 | 14.5 | 32.2 | 0.00 | 0.00 | 0.00 | 70 | 1010.9 |
| 20260505211157 | 7 | 302 | 12.9 | 25.7 | 0.00 | 0.00 | 0.00 | 69 | 1010.7 |
| 20260505210656 | 7 | 296 | 9.7 | 25.7 | 0.00 | 0.00 | 0.00 | 71 | 1010.7 |
| 20260505210156 | 7 | 302 | 8.0 | 19.3 | 0.00 | 0.00 | 0.00 | 70 | 1010.7 |
| 20260505205656 | 7 | 253 | 8.0 | 25.7 | 0.00 | 0.00 | 0.00 | 71 | 1010.6 |
| 20260505205155 | 7 | 244 | 9.7 | 25.7 | 0.00 | 0.00 | 0.00 | 72 | 1010.6 |
| 20260505204927 | 7 | 345 | 9.7 | 19.3 | 0.00 | 0.00 | 0.00 | 70 | 1010.6 |
| 20260505204156 | 7 | 5 | 6.4 | 22.5 | 0.00 | 0.00 | 0.00 | 71 | 1010.6 |
| 20260505203656 | 7 | 310 | 4.8 | 22.5 | 0.00 | 0.00 | 0.00 | 71 | 1010.5 |
| 20260505203427 | 7 | 325 | 8.0 | 16.1 | 0.00 | 0.00 | 0.00 | 72 | 1010.6 |
| 20260505202656 | 7 | 249 | 4.8 | 16.1 | 0.00 | 0.00 | 0.00 | 71 | 1010.6 |
| 20260505202156 | 7 | 317 | 4.8 | 16.1 | 0.00 | 0.00 | 0.00 | 70 | 1010.6 |
| 20260505201654 | 7 | 286 | 6.4 | 16.1 | 0.00 | 0.00 | 0.00 | 70 | 1010.5 |
| 20260505201147 | 7 | 275 | 8.0 | 17.7 | 0.00 | 0.00 | 0.00 | 69 | 1010.5 |
| 20260505200642 | 7 | 242 | 6.4 | 19.3 | 0.00 | 0.00 | 0.00 | 69 | 1010.5 |
| 20260505200141 | 7 | 310 | 6.4 | 19.3 | 0.00 | 0.00 | 0.00 | 69 | 1010.4 |
| 20260505195642 | 7 | 258 | 6.4 | 14.5 | 0.00 | 0.00 | 0.00 | 68 | 1010.4 |
| 20260505195412 | 8 | 290 | 4.8 | 12.9 | 0.00 | 0.00 | 0.00 | 67 | 1010.4 |